| time (UTC) | temp F | wind direction | speed knots | gust knots | rain 1hr in | rain 24hr in | rain mn in | humidity % | barometer mb |
| 20260503184025 | 61 | 240 | 7.0 | 13.0 | 0.00 | 0.00 | 0.00 | 43 | 1008.6 |
| 20260503183522 | 64 | 281 | 8.7 | 13.0 | 0.00 | 0.00 | 0.00 | 43 | 1008.6 |
| 20260503183019 | 63 | 231 | 11.3 | 19.1 | 0.00 | 0.00 | 0.00 | 41 | 1008.8 |
| 20260503182518 | 62 | 273 | 12.2 | 18.2 | 0.00 | 0.00 | 0.00 | 42 | 1009.0 |
| 20260503182015 | 62 | 336 | 9.6 | 19.1 | 0.00 | 0.00 | 0.00 | 44 | 1008.8 |
| 20260503181512 | 61 | 239 | 8.7 | 16.5 | 0.00 | 0.00 | 0.00 | 43 | 1008.7 |
| 20260503181008 | 62 | 227 | 7.0 | 19.1 | 0.00 | 0.00 | 0.00 | 42 | 1009.1 |
| 20260503180506 | 62 | 240 | 9.6 | 14.8 | 0.00 | 0.00 | 0.00 | 40 | 1009.0 |
| 20260503180003 | 62 | 217 | 12.2 | 16.5 | 0.00 | 0.00 | 0.00 | 42 | 1009.1 |
| 20260503175500 | 62 | 246 | 12.2 | 16.5 | 0.00 | 0.00 | 0.00 | 41 | 1009.1 |
| 20260503174956 | 61 | 305 | 10.4 | 22.6 | 0.00 | 0.00 | 0.00 | 42 | 1009.3 |
| 20260503174455 | 62 | 233 | 7.0 | 14.8 | 0.00 | 0.00 | 0.00 | 43 | 1009.4 |
| 20260503173950 | 62 | 223 | 7.8 | 12.2 | 0.00 | 0.00 | 0.00 | 41 | 1009.3 |
| 20260503173446 | 61 | 232 | 5.2 | 12.2 | 0.00 | 0.00 | 0.00 | 45 | 1009.5 |
| 20260503172943 | 61 | 243 | 5.2 | 11.3 | 0.00 | 0.00 | 0.00 | 43 | 1009.4 |
| 20260503172440 | 62 | 228 | 7.0 | 7.8 | 0.00 | 0.00 | 0.00 | 44 | 1009.4 |
| 20260503171937 | 60 | 255 | 7.0 | 13.0 | 0.00 | 0.00 | 0.00 | 44 | 1009.6 |
| 20260503171433 | 61 | 234 | 13.0 | 20.9 | 0.00 | 0.00 | 0.00 | 43 | 1009.5 |
| 20260503170931 | 62 | 300 | 7.0 | 13.0 | 0.00 | 0.00 | 0.00 | 46 | 1009.6 |
| 20260503170427 | 60 | 239 | 7.8 | 12.2 | 0.00 | 0.00 | 0.00 | 44 | 1009.9 |
| 20260503150819 | 52 | 255 | 6.1 | 11.3 | 0.00 | 0.00 | 0.00 | 53 | 1011.0 |
| 20260503150315 | 51 | 242 | 5.2 | 13.9 | 0.00 | 0.00 | 0.00 | 54 | 1011.3 |
| 20260503140240 | 54 | 235 | 9.6 | 14.8 | 0.00 | 0.00 | 0.00 | 50 | 1011.2 |
| 20260503131209 | 51 | 237 | 7.0 | 8.7 | 0.00 | 0.00 | 0.00 | 58 | 1011.2 |
| 20260503130707 | 50 | 215 | 4.3 | 8.7 | 0.00 | 0.00 | 0.00 | 56 | 1011.4 |
| 20260503130204 | 50 | 267 | 7.0 | 9.6 | 0.00 | 0.00 | 0.00 | 57 | 1011.3 |
| 20260503120130 | 43 | 240 | 2.6 | 3.5 | 0.00 | 0.00 | 0.00 | 70 | 1011.3 |
| 20260503110557 | 37 | 174 | 0.9 | 1.7 | 0.00 | 0.00 | 0.00 | 78 | 1011.3 |
| 20260503090444 | 35 | 169 | 1.7 | 2.6 | 0.00 | 0.00 | 0.00 | 77 | 1011.8 |
| 20260503081410 | 33 | 167 | 0.9 | 0.9 | 0.00 | 0.00 | 0.00 | 80 | 1012.5 |
| 20260503080907 | 33 | 171 | 0.9 | 0.9 | 0.00 | 0.00 | 0.00 | 80 | 1012.2 |
| 20260503080404 | 32 | 164 | 0.9 | 1.7 | 0.00 | 0.00 | 0.00 | 83 | 1012.3 |
| 20260503072840 | 32 | 156 | 0.0 | 0.9 | 0.00 | 0.00 | 0.00 | 86 | 1012.3 |
| 20260503072337 | 32 | 156 | 0.0 | 0.9 | 0.00 | 0.00 | 0.00 | 86 | 1012.3 |
| 20260503071833 | 32 | 156 | 0.0 | 0.9 | 0.00 | 0.00 | 0.00 | 86 | 1012.3 |
| 20260503071331 | 32 | 156 | 0.0 | 0.0 | 0.00 | 0.00 | 0.00 | 85 | 1012.3 |
| 20260503070827 | 32 | 156 | 0.9 | 0.9 | 0.00 | 0.00 | 0.00 | 85 | 1012.4 |
| 20260503070326 | 32 | 156 | 0.9 | 0.9 | 0.00 | 0.00 | 0.00 | 85 | 1012.4 |
| 20260503060250 | 31 | 156 | 0.0 | 0.0 | 0.00 | 0.00 | 0.00 | 90 | 1012.7 |
| 20260503054737 | 31 | 156 | 0.0 | 0.0 | 0.00 | 0.00 | 0.00 | 90 | 1013.0 |
| 20260503054234 | 31 | 156 | 0.0 | 0.0 | 0.00 | 0.00 | 0.00 | 90 | 1013.0 |
| 20260503053732 | 31 | 156 | 0.0 | 0.0 | 0.00 | 0.00 | 0.00 | 90 | 1013.0 |
| 20260503053231 | 31 | 156 | 0.0 | 0.9 | 0.00 | 0.00 | 0.00 | 90 | 1013.0 |
| 20260503052726 | 31 | 156 | 0.0 | 0.9 | 0.00 | 0.00 | 0.00 | 91 | 1013.2 |
| 20260503052223 | 31 | 156 | 0.9 | 0.9 | 0.00 | 0.00 | 0.00 | 91 | 1013.3 |
| 20260503051718 | 31 | 156 | 0.0 | 0.9 | 0.00 | 0.00 | 0.00 | 90 | 1013.1 |
| 20260503051216 | 31 | 156 | 0.0 | 0.9 | 0.00 | 0.00 | 0.00 | 91 | 1013.2 |
| 20260503050713 | 31 | 156 | 0.0 | 0.9 | 0.00 | 0.00 | 0.00 | 91 | 1013.2 |
| 20260503050209 | 32 | 156 | 0.0 | 0.9 | 0.00 | 0.00 | 0.00 | 91 | 1013.1 |
| 20260503045707 | 32 | 156 | 0.0 | 0.9 | 0.00 | 0.00 | 0.00 | 91 | 1013.3 |
| 20260503045204 | 32 | 156 | 0.0 | 0.0 | 0.00 | 0.00 | 0.00 | 91 | 1013.3 |
| 20260503044700 | 32 | 156 | 0.0 | 0.9 | 0.00 | 0.00 | 0.00 | 90 | 1013.3 |
| 20260503044158 | 32 | 156 | 0.0 | 0.0 | 0.00 | 0.00 | 0.00 | 89 | 1013.4 |
| 20260503043654 | 32 | 156 | 0.0 | 0.0 | 0.00 | 0.00 | 0.00 | 89 | 1013.4 |
| 20260503043152 | 32 | 156 | 0.0 | 0.9 | 0.00 | 0.00 | 0.00 | 90 | 1013.4 |
| 20260503042648 | 32 | 156 | 0.0 | 0.9 | 0.00 | 0.00 | 0.00 | 90 | 1013.4 |
| 20260503042144 | 32 | 156 | 0.0 | 0.0 | 0.00 | 0.00 | 0.00 | 90 | 1013.2 |
| 20260503041641 | 32 | 156 | 0.0 | 0.0 | 0.00 | 0.00 | 0.00 | 90 | 1013.4 |
| 20260503041139 | 32 | 156 | 0.0 | 0.9 | 0.00 | 0.00 | 0.00 | 89 | 1013.4 |
| 20260503040636 | 32 | 156 | 0.0 | 0.9 | 0.00 | 0.00 | 0.00 | 88 | 1013.3 |
| 20260503040133 | 32 | 156 | 0.0 | 0.0 | 0.00 | 0.00 | 0.00 | 89 | 1013.5 |
| 20260503035629 | 32 | 156 | 0.0 | 0.9 | 0.00 | 0.00 | 0.00 | 90 | 1013.3 |
| 20260503035127 | 32 | 156 | 0.0 | 0.9 | 0.00 | 0.00 | 0.00 | 91 | 1013.5 |
| 20260503034625 | 31 | 157 | 0.0 | 0.0 | 0.00 | 0.00 | 0.00 | 91 | 1013.4 |
| 20260503034122 | 32 | 157 | 0.0 | 0.0 | 0.00 | 0.00 | 0.00 | 91 | 1013.5 |
| 20260503033619 | 32 | 156 | 0.0 | 0.0 | 0.00 | 0.00 | 0.00 | 91 | 1013.5 |
| 20260503033116 | 33 | 156 | 0.0 | 0.0 | 0.00 | 0.00 | 0.00 | 91 | 1013.6 |
| 20260503032615 | 33 | 156 | 0.0 | 0.9 | 0.00 | 0.00 | 0.00 | 92 | 1013.7 |
| 20260503032113 | 33 | 156 | 0.0 | 0.9 | 0.00 | 0.00 | 0.00 | 91 | 1013.6 |
| 20260503031610 | 32 | 156 | 0.0 | 0.0 | 0.00 | 0.00 | 0.00 | 89 | 1013.8 |
| 20260503031108 | 32 | 157 | 0.0 | 0.0 | 0.00 | 0.00 | 0.00 | 87 | 1013.6 |
| 20260503030603 | 33 | 157 | 0.0 | 0.0 | 0.00 | 0.00 | 0.00 | 85 | 1013.7 |
| 20260503030100 | 33 | 156 | 0.0 | 0.0 | 0.00 | 0.00 | 0.00 | 85 | 1013.6 |
| 20260503025557 | 33 | 157 | 0.0 | 0.0 | 0.00 | 0.00 | 0.00 | 83 | 1013.7 |
| 20260503025055 | 32 | 157 | 0.0 | 0.0 | 0.00 | 0.00 | 0.00 | 83 | 1013.7 |
| 20260503024550 | 31 | 156 | 0.0 | 0.0 | 0.00 | 0.00 | 0.00 | 84 | 1013.8 |
| 20260503024048 | 31 | 157 | 0.0 | 0.0 | 0.00 | 0.00 | 0.00 | 82 | 1013.7 |
| 20260503023544 | 32 | 157 | 0.0 | 0.0 | 0.00 | 0.00 | 0.00 | 82 | 1013.6 |
| 20260503023042 | 32 | 157 | 0.0 | 0.0 | 0.00 | 0.00 | 0.00 | 82 | 1013.7 |
| 20260503022538 | 33 | 157 | 0.0 | 0.0 | 0.00 | 0.00 | 0.00 | 80 | 1013.8 |
| 20260503022033 | 33 | 157 | 0.0 | 0.0 | 0.00 | 0.00 | 0.00 | 81 | 1013.5 |
| 20260503021530 | 33 | 157 | 0.0 | 0.0 | 0.00 | 0.00 | 0.00 | 80 | 1013.8 |
| 20260503021027 | 33 | 157 | 0.0 | 0.0 | 0.00 | 0.00 | 0.00 | 80 | 1013.7 |
| 20260503020524 | 33 | 157 | 0.0 | 0.0 | 0.00 | 0.00 | 0.00 | 79 | 1013.6 |
| 20260503020021 | 33 | 157 | 0.0 | 0.0 | 0.00 | 0.00 | 0.00 | 78 | 1013.8 |
| 20260503015517 | 34 | 157 | 0.0 | 0.0 | 0.00 | 0.00 | 0.00 | 77 | 1013.5 |
| 20260503015015 | 34 | 157 | 0.0 | 0.0 | 0.00 | 0.00 | 0.00 | 77 | 1013.8 |
| 20260503014511 | 34 | 157 | 0.0 | 0.0 | 0.00 | 0.00 | 0.00 | 77 | 1013.7 |
| 20260503014009 | 35 | 157 | 0.0 | 0.0 | 0.00 | 0.00 | 0.00 | 77 | 1013.6 |
| 20260503013506 | 35 | 157 | 0.0 | 0.0 | 0.00 | 0.00 | 0.00 | 74 | 1013.5 |
| 20260503013003 | 35 | 157 | 0.0 | 0.0 | 0.00 | 0.00 | 0.00 | 72 | 1013.4 |
| 20260503012501 | 35 | 157 | 0.0 | 0.0 | 0.00 | 0.00 | 0.00 | 70 | 1013.4 |
| 20260503011956 | 36 | 157 | 0.0 | 0.0 | 0.00 | 0.00 | 0.00 | 69 | 1013.4 |
| 20260503011454 | 37 | 157 | 0.0 | 0.0 | 0.00 | 0.00 | 0.00 | 68 | 1013.4 |
| 20260503010951 | 38 | 157 | 0.0 | 0.0 | 0.00 | 0.00 | 0.00 | 66 | 1013.5 |
| 20260503010447 | 39 | 157 | 0.0 | 0.0 | 0.00 | 0.00 | 0.00 | 65 | 1013.3 |
| 20260503005944 | 40 | 165 | 0.0 | 0.9 | 0.00 | 0.00 | 0.00 | 64 | 1013.1 |
| 20260503005442 | 41 | 168 | 0.0 | 0.0 | 0.00 | 0.00 | 0.00 | 62 | 1013.4 |
| 20260503004938 | 42 | 188 | 0.9 | 1.7 | 0.00 | 0.00 | 0.00 | 61 | 1013.1 |
| 20260503004435 | 43 | 232 | 1.7 | 2.6 | 0.00 | 0.00 | 0.00 | 59 | 1013.3 |
| 20260503003933 | 43 | 237 | 1.7 | 2.6 | 0.00 | 0.00 | 0.00 | 57 | 1013.3 |
| 20260503003429 | 44 | 236 | 2.6 | 2.6 | 0.00 | 0.00 | 0.00 | 57 | 1013.2 |
| 20260503002927 | 45 | 236 | 1.7 | 3.5 | 0.00 | 0.00 | 0.00 | 54 | 1013.3 |
| 20260503002424 | 45 | 196 | 0.9 | 3.5 | 0.00 | 0.00 | 0.00 | 52 | 1013.3 |
| 20260503001920 | 46 | 243 | 1.7 | 2.6 | 0.00 | 0.00 | 0.00 | 55 | 1013.4 |
| 20260503001416 | 46 | 204 | 0.9 | 2.6 | 0.00 | 0.00 | 0.00 | 53 | 1013.1 |
| 20260503000914 | 47 | 293 | 1.7 | 3.5 | 0.00 | 0.00 | 0.00 | 49 | 1013.2 |
| 20260503000411 | 47 | 224 | 1.7 | 7.0 | 0.00 | 0.00 | 0.00 | 48 | 1013.2 |
| 20260502235908 | 47 | 211 | 1.7 | 5.2 | 0.00 | 0.00 | 0.00 | 51 | 1013.3 |
| 20260502235405 | 47 | 185 | 0.9 | 2.6 | 0.00 | 0.00 | 0.00 | 52 | 1013.1 |
| 20260502234902 | 47 | 249 | 3.5 | 5.2 | 0.00 | 0.00 | 0.00 | 50 | 1013.2 |
| 20260502234359 | 47 | 304 | 0.9 | 2.6 | 0.00 | 0.00 | 0.00 | 51 | 1013.2 |
| 20260502233856 | 47 | 178 | 0.9 | 2.6 | 0.00 | 0.00 | 0.00 | 51 | 1013.2 |
| 20260502233352 | 47 | 197 | 1.7 | 2.6 | 0.00 | 0.00 | 0.00 | 52 | 1013.3 |
| 20260502232849 | 47 | 205 | 1.7 | 3.5 | 0.00 | 0.00 | 0.00 | 51 | 1013.3 |
| 20260502232345 | 47 | 242 | 1.7 | 2.6 | 0.00 | 0.00 | 0.00 | 49 | 1013.3 |
| 20260502231842 | 47 | 210 | 0.9 | 3.5 | 0.00 | 0.00 | 0.00 | 50 | 1013.4 |
| 20260502231340 | 47 | 254 | 3.5 | 5.2 | 0.00 | 0.00 | 0.00 | 50 | 1013.4 |
| 20260502230838 | 47 | 243 | 4.3 | 5.2 | 0.00 | 0.00 | 0.00 | 51 | 1013.5 |
| 20260502230336 | 48 | 209 | 1.7 | 5.2 | 0.00 | 0.00 | 0.00 | 49 | 1013.4 |
| 20260502225832 | 47 | 263 | 1.7 | 3.5 | 0.00 | 0.00 | 0.00 | 51 | 1013.5 |
| 20260502225328 | 47 | 253 | 2.6 | 3.5 | 0.00 | 0.00 | 0.00 | 50 | 1013.7 |
| 20260502224826 | 47 | 265 | 1.7 | 2.6 | 0.00 | 0.00 | 0.00 | 50 | 1013.7 |
| 20260502224321 | 47 | 231 | 1.7 | 2.6 | 0.00 | 0.00 | 0.00 | 52 | 1013.6 |
| 20260502223819 | 47 | 230 | 1.7 | 2.6 | 0.00 | 0.00 | 0.00 | 54 | 1013.5 |
| 20260502223317 | 46 | 282 | 2.6 | 3.5 | 0.00 | 0.00 | 0.00 | 52 | 1013.5 |
| 20260502222815 | 46 | 285 | 1.7 | 3.5 | 0.00 | 0.00 | 0.00 | 51 | 1013.7 |
| 20260502222312 | 46 | 275 | 2.6 | 2.6 | 0.00 | 0.00 | 0.00 | 52 | 1013.6 |
| 20260502221808 | 47 | 16 | 0.9 | 2.6 | 0.00 | 0.00 | 0.00 | 51 | 1013.5 |
| 20260502221304 | 47 | 175 | 0.9 | 1.7 | 0.00 | 0.00 | 0.00 | 53 | 1013.6 |
| 20260502220801 | 47 | 197 | 1.7 | 3.5 | 0.00 | 0.00 | 0.00 | 50 | 1013.6 |
| 20260502220257 | 47 | 255 | 4.3 | 7.0 | 0.00 | 0.00 | 0.00 | 51 | 1013.4 |
| 20260502215754 | 47 | 247 | 4.3 | 7.8 | 0.00 | 0.00 | 0.00 | 50 | 1013.4 |
| 20260502215251 | 47 | 297 | 2.6 | 7.0 | 0.00 | 0.00 | 0.00 | 49 | 1013.3 |
| 20260502214748 | 47 | 272 | 3.5 | 8.7 | 0.00 | 0.00 | 0.00 | 50 | 1013.5 |
| 20260502214245 | 47 | 261 | 3.5 | 7.8 | 0.00 | 0.00 | 0.00 | 49 | 1013.4 |
| 20260502213742 | 49 | 304 | 5.2 | 7.0 | 0.00 | 0.00 | 0.00 | 49 | 1013.6 |
| 20260502213239 | 50 | 233 | 2.6 | 6.1 | 0.00 | 0.00 | 0.00 | 45 | 1013.6 |
| 20260502212738 | 51 | 277 | 5.2 | 9.6 | 0.00 | 0.00 | 0.00 | 43 | 1013.5 |
| 20260502212236 | 50 | 295 | 4.3 | 7.0 | 0.00 | 0.00 | 0.00 | 46 | 1013.4 |
| 20260502211731 | 49 | 244 | 4.3 | 7.0 | 0.00 | 0.00 | 0.00 | 48 | 1013.4 |
| 20260502211229 | 50 | 155 | 0.9 | 3.5 | 0.00 | 0.00 | 0.00 | 48 | 1013.4 |
| 20260502210726 | 51 | 325 | 7.0 | 9.6 | 0.00 | 0.00 | 0.00 | 44 | 1013.6 |
| 20260502210223 | 50 | 265 | 1.7 | 8.7 | 0.00 | 0.00 | 0.00 | 50 | 1013.4 |
| 20260502205720 | 47 | 290 | 6.1 | 7.8 | 0.00 | 0.00 | 0.00 | 48 | 1013.7 |
| 20260502205216 | 47 | 275 | 5.2 | 6.1 | 0.00 | 0.00 | 0.00 | 50 | 1013.6 |
| 20260502204713 | 46 | 252 | 3.5 | 7.8 | 0.00 | 0.00 | 0.00 | 48 | 1013.8 |
| 20260502204211 | 47 | 245 | 4.3 | 7.8 | 0.00 | 0.00 | 0.00 | 49 | 1013.6 |
| 20260502203708 | 47 | 238 | 3.5 | 8.7 | 0.00 | 0.00 | 0.00 | 50 | 1013.7 |
| 20260502203206 | 48 | 224 | 4.3 | 7.8 | 0.00 | 0.00 | 0.00 | 48 | 1013.9 |
| 20260502202700 | 50 | 288 | 3.5 | 7.8 | 0.00 | 0.00 | 0.00 | 41 | 1013.9 |
| 20260502202159 | 48 | 219 | 1.7 | 2.6 | 0.00 | 0.00 | 0.00 | 48 | 1014.0 |
| 20260502201656 | 48 | 294 | 5.2 | 7.0 | 0.00 | 0.00 | 0.00 | 47 | 1014.1 |
| 20260502201152 | 48 | 271 | 2.6 | 5.2 | 0.00 | 0.00 | 0.00 | 48 | 1013.9 |
| 20260502200648 | 49 | 247 | 4.3 | 9.6 | 0.00 | 0.00 | 0.00 | 48 | 1014.1 |
| 20260502200144 | 48 | 215 | 1.7 | 3.5 | 0.00 | 0.00 | 0.00 | 50 | 1014.1 |
| 20260502195643 | 48 | 257 | 5.2 | 7.8 | 0.00 | 0.00 | 0.00 | 50 | 1014.0 |
| 20260502195139 | 48 | 248 | 3.5 | 7.0 | 0.00 | 0.00 | 0.00 | 49 | 1014.1 |
| 20260502194636 | 48 | 273 | 3.5 | 7.8 | 0.00 | 0.00 | 0.00 | 46 | 1014.0 |
| 20260502194133 | 49 | 280 | 6.1 | 7.0 | 0.00 | 0.00 | 0.00 | 46 | 1014.2 |
| 20260502193629 | 49 | 295 | 4.3 | 7.0 | 0.00 | 0.00 | 0.00 | 44 | 1014.1 |
| 20260502193126 | 48 | 230 | 1.7 | 6.1 | 0.00 | 0.00 | 0.00 | 48 | 1014.3 |
| 20260502192621 | 48 | 245 | 1.7 | 3.5 | 0.00 | 0.00 | 0.00 | 49 | 1014.4 |
| 20260502192119 | 48 | 251 | 3.5 | 8.7 | 0.00 | 0.00 | 0.00 | 47 | 1014.3 |
| 20260502191616 | 49 | 249 | 5.2 | 7.0 | 0.00 | 0.00 | 0.00 | 44 | 1014.6 |
| 20260502191113 | 50 | 244 | 2.6 | 3.5 | 0.00 | 0.00 | 0.00 | 44 | 1014.4 |
| 20260502190611 | 47 | 304 | 0.9 | 6.1 | 0.00 | 0.00 | 0.00 | 50 | 1014.6 |
| 20260502190108 | 47 | 242 | 5.2 | 6.1 | 0.00 | 0.00 | 0.00 | 48 | 1014.7 |
| 20260502185602 | 48 | 248 | 2.6 | 7.0 | 0.00 | 0.00 | 0.00 | 47 | 1014.7 |
| 20260502185100 | 48 | 299 | 3.5 | 5.2 | 0.00 | 0.00 | 0.00 | 49 | 1014.6 |
| 20260502184556 | 48 | 236 | 4.3 | 8.7 | 0.00 | 0.00 | 0.00 | 45 | 1014.7 |